| time (UTC) | temp F | wind direction | speed MPH | gust MPH | rain 1hr in | rain 24hr in | rain mn in | humidity % | barometer mb |
| 20260510191558 | 76 | 102 | 4.0 | 10.0 | 0.00 | 0.02 | 0.00 | 78 | 1016.5 |
| 20260510190055 | 76 | 53 | 3.0 | 12.0 | 0.00 | 0.02 | 0.00 | 78 | 1016.7 |
| 20260510184547 | 76 | 96 | 5.0 | 10.0 | 0.00 | 0.02 | 0.00 | 79 | 1016.8 |
| 20260510183054 | 75 | 81 | 5.0 | 14.0 | 0.00 | 0.02 | 0.00 | 81 | 1016.9 |
| 20260510181549 | 75 | 118 | 5.0 | 11.0 | 0.00 | 0.02 | 0.00 | 81 | 1017.1 |
| 20260510180058 | 76 | 95 | 3.0 | 12.0 | 0.00 | 0.02 | 0.00 | 82 | 1017.2 |
| 20260510174547 | 75 | 118 | 4.0 | 12.0 | 0.00 | 0.02 | 0.00 | 83 | 1017.4 |
| 20260510173049 | 75 | 86 | 1.0 | 11.0 | 0.00 | 0.02 | 0.00 | 84 | 1017.3 |
| 20260510171551 | 76 | 121 | 4.0 | 8.0 | 0.00 | 0.02 | 0.00 | 81 | 1017.4 |
| 20260510170059 | 75 | 74 | 5.0 | 10.0 | 0.00 | 0.02 | 0.00 | 82 | 1017.4 |
| 20260510164556 | 75 | 97 | 6.0 | 11.0 | 0.00 | 0.08 | 0.00 | 82 | 1017.3 |
| 20260510163048 | 76 | 98 | 2.0 | 12.0 | 0.00 | 0.08 | 0.00 | 83 | 1017.3 |
| 20260510161550 | 74 | 41 | 1.0 | 3.0 | 0.00 | 0.08 | 0.00 | 87 | 1017.3 |
| 20260510160100 | 74 | 352 | 2.0 | 5.0 | 0.00 | 0.08 | 0.00 | 87 | 1017.3 |
| 20260510154603 | 73 | 15 | 3.0 | 5.0 | 0.00 | 0.24 | 0.00 | 89 | 1017.3 |
| 20260510153051 | 73 | 355 | 4.0 | 8.0 | 0.00 | 0.24 | 0.00 | 90 | 1017.4 |
| 20260510151550 | 72 | 360 | 5.0 | 8.0 | 0.00 | 0.24 | 0.00 | 91 | 1017.4 |
| 20260510150052 | 72 | 339 | 4.0 | 8.0 | 0.00 | 0.24 | 0.00 | 91 | 1017.2 |
| 20260510144545 | 71 | 351 | 4.0 | 6.0 | 0.00 | 0.24 | 0.00 | 92 | 1017.2 |
| 20260510143051 | 71 | 11 | 4.0 | 6.0 | 0.00 | 0.24 | 0.00 | 93 | 1017.3 |
| 20260510141548 | 71 | 348 | 4.0 | 6.0 | 0.00 | 0.24 | 0.00 | 94 | 1017.4 |
| 20260510140052 | 70 | 5 | 5.0 | 8.0 | 0.00 | 0.24 | 0.00 | 94 | 1017.3 |
| 20260510134552 | 70 | 360 | 4.0 | 6.0 | 0.00 | 0.24 | 0.00 | 95 | 1017.2 |
| 20260510133057 | 69 | 334 | 5.0 | 8.0 | 0.00 | 0.24 | 0.00 | 95 | 1017.0 |
| 20260510131550 | 69 | 355 | 4.0 | 5.0 | 0.00 | 0.24 | 0.00 | 95 | 1017.1 |
| 20260510130050 | 69 | 9 | 3.0 | 5.0 | 0.00 | 0.24 | 0.00 | 96 | 1016.8 |
| 20260510124607 | 69 | 34 | 4.0 | 6.0 | 0.00 | 0.24 | 0.00 | 95 | 1016.6 |
| 20260510123049 | 69 | 40 | 4.0 | 8.0 | 0.00 | 0.24 | 0.00 | 95 | 1016.3 |
| 20260510121547 | 69 | 26 | 4.0 | 7.0 | 0.00 | 0.24 | 0.00 | 95 | 1016.2 |
| 20260510120051 | 69 | 50 | 4.0 | 8.0 | 0.00 | 0.24 | 0.00 | 95 | 1016.0 |
| 20260510114547 | 69 | 19 | 5.0 | 8.0 | 0.00 | 0.24 | 0.00 | 95 | 1015.8 |
| 20260510113059 | 69 | 13 | 5.0 | 8.0 | 0.00 | 0.24 | 0.00 | 95 | 1015.6 |
| 20260510111604 | 69 | 23 | 4.0 | 7.0 | 0.00 | 0.24 | 0.00 | 95 | 1015.4 |
| 20260510110052 | 69 | 18 | 5.0 | 7.0 | 0.00 | 0.24 | 0.00 | 95 | 1015.2 |
| 20260510104603 | 69 | 51 | 2.0 | 4.0 | 0.00 | 0.24 | 0.00 | 95 | 1015.0 |
| 20260510103049 | 69 | 76 | 1.0 | 3.0 | 0.00 | 0.24 | 0.00 | 95 | 1014.6 |
| 20260510101551 | 69 | 0 | 0.0 | 1.0 | 0.00 | 0.24 | 0.00 | 95 | 1014.6 |
| 20260510100045 | 69 | 0 | 0.0 | 3.0 | 0.00 | 0.24 | 0.00 | 95 | 1014.7 |
| 20260510094548 | 69 | 97 | 0.0 | 0.0 | 0.00 | 0.24 | 0.00 | 95 | 1014.5 |
| 20260510093045 | 70 | 0 | 0.0 | 5.0 | 0.00 | 0.24 | 0.00 | 95 | 1014.5 |
| 20260510091554 | 70 | 66 | 3.0 | 7.0 | 0.00 | 0.24 | 0.00 | 95 | 1013.9 |
| 20260510090100 | 70 | 338 | 4.0 | 8.0 | 0.00 | 0.24 | 0.00 | 95 | 1013.9 |
| 20260510084556 | 70 | 19 | 4.0 | 7.0 | 0.00 | 0.26 | 0.00 | 95 | 1013.6 |
| 20260510083051 | 70 | 66 | 3.0 | 6.0 | 0.00 | 0.26 | 0.00 | 95 | 1013.4 |
| 20260510081547 | 69 | 95 | 4.0 | 9.0 | 0.00 | 0.26 | 0.00 | 95 | 1013.1 |
| 20260510080056 | 69 | 99 | 3.0 | 8.0 | 0.00 | 0.26 | 0.00 | 95 | 1012.9 |
| 20260510074550 | 69 | 75 | 4.0 | 8.0 | 0.00 | 0.30 | 0.00 | 95 | 1012.8 |
| 20260510073051 | 70 | 65 | 4.0 | 6.0 | 0.00 | 0.30 | 0.00 | 95 | 1013.2 |
| 20260510071548 | 70 | 48 | 4.0 | 8.0 | 0.00 | 0.30 | 0.00 | 95 | 1013.3 |
| 20260510070055 | 70 | 38 | 5.0 | 8.0 | 0.00 | 0.30 | 0.00 | 95 | 1013.3 |
| 20260510064605 | 70 | 39 | 4.0 | 6.0 | 0.00 | 0.32 | 0.00 | 95 | 1013.4 |
| 20260510063047 | 70 | 26 | 4.0 | 7.0 | 0.00 | 0.32 | 0.00 | 95 | 1013.3 |
| 20260510061553 | 70 | 355 | 3.0 | 5.0 | 0.00 | 0.32 | 0.00 | 95 | 1013.5 |
| 20260510060052 | 70 | 321 | 4.0 | 7.0 | 0.00 | 0.32 | 0.00 | 94 | 1013.8 |
| 20260510054547 | 70 | 286 | 5.0 | 8.0 | 0.00 | 0.32 | 0.00 | 94 | 1014.0 |
| 20260510053051 | 71 | 279 | 7.0 | 9.0 | 0.00 | 0.32 | 0.00 | 94 | 1014.1 |
| 20260510051601 | 71 | 342 | 3.0 | 5.0 | 0.00 | 0.32 | 0.00 | 94 | 1013.6 |
| 20260510050058 | 71 | 80 | 2.0 | 7.0 | 0.01 | 0.32 | 0.00 | 94 | 1013.3 |
| 20260510044550 | 71 | 0 | 0.0 | 0.0 | 0.01 | 0.33 | 0.32 | 94 | 1013.8 |
| 20260510043051 | 71 | 0 | 0.0 | 0.0 | 0.01 | 0.33 | 0.32 | 93 | 1014.1 |
| 20260510041604 | 71 | 0 | 0.0 | 1.0 | 0.01 | 0.33 | 0.32 | 93 | 1014.2 |
| 20260510040056 | 71 | 0 | 0.0 | 1.0 | 0.00 | 0.32 | 0.31 | 93 | 1014.3 |
| 20260510034551 | 70 | 0 | 0.0 | 2.0 | 0.00 | 0.32 | 0.31 | 92 | 1014.7 |
| 20260510033049 | 71 | 0 | 0.0 | 0.0 | 0.00 | 0.32 | 0.31 | 93 | 1014.4 |
| 20260510031557 | 71 | 0 | 0.0 | 1.0 | 0.00 | 0.32 | 0.31 | 92 | 1014.2 |
| 20260510024552 | 70 | 0 | 0.0 | 2.0 | 0.00 | 0.33 | 0.31 | 93 | 1013.8 |
| 20260510023045 | 70 | 0 | 0.0 | 4.0 | 0.00 | 0.33 | 0.31 | 93 | 1013.5 |
| 20260510021548 | 71 | 0 | 1.0 | 5.0 | 0.00 | 0.33 | 0.31 | 93 | 1013.4 |
| 20260510020052 | 71 | 106 | 3.0 | 7.0 | 0.00 | 0.33 | 0.31 | 92 | 1013.5 |
| 20260510014549 | 71 | 0 | 0.0 | 1.0 | 0.00 | 0.33 | 0.31 | 92 | 1014.0 |
| 20260510013053 | 71 | 0 | 0.0 | 2.0 | 0.00 | 0.33 | 0.31 | 91 | 1014.0 |
| 20260510011552 | 71 | 0 | 0.0 | 2.0 | 0.01 | 0.33 | 0.31 | 90 | 1014.4 |
| 20260510010049 | 71 | 130 | 1.0 | 13.0 | 0.01 | 0.33 | 0.31 | 90 | 1014.1 |
| 20260510004554 | 70 | 123 | 4.0 | 9.0 | 0.01 | 0.37 | 0.31 | 91 | 1013.1 |
| 20260510003058 | 70 | 119 | 4.0 | 11.0 | 0.01 | 0.37 | 0.31 | 91 | 1012.7 |
| 20260510001549 | 70 | 108 | 2.0 | 7.0 | 0.00 | 0.36 | 0.30 | 92 | 1012.7 |
| 20260510000057 | 70 | 106 | 1.0 | 4.0 | 0.00 | 0.36 | 0.30 | 92 | 1012.7 |
| 20260509234603 | 70 | 0 | 1.0 | 4.0 | 0.00 | 0.38 | 0.30 | 92 | 1013.0 |
| 20260509233054 | 70 | 0 | 0.0 | 2.0 | 0.00 | 0.38 | 0.30 | 91 | 1013.2 |
| 20260509231604 | 70 | 0 | 0.0 | 2.0 | 0.00 | 0.38 | 0.30 | 91 | 1013.2 |
| 20260509230052 | 70 | 114 | 1.0 | 3.0 | 0.00 | 0.38 | 0.30 | 91 | 1013.1 |
| 20260509224546 | 71 | 0 | 0.0 | 4.0 | 0.00 | 0.38 | 0.30 | 90 | 1012.9 |
| 20260509223049 | 71 | 0 | 0.0 | 6.0 | 0.00 | 0.38 | 0.30 | 90 | 1012.7 |
| 20260509221548 | 71 | 119 | 3.0 | 8.0 | 0.00 | 0.38 | 0.30 | 90 | 1012.9 |
| 20260509220052 | 71 | 108 | 1.0 | 4.0 | 0.00 | 0.38 | 0.30 | 90 | 1012.6 |
| 20260509214545 | 71 | 111 | 1.0 | 3.0 | 0.00 | 0.38 | 0.30 | 89 | 1012.4 |
| 20260509213049 | 71 | 360 | 2.0 | 4.0 | 0.00 | 0.38 | 0.30 | 88 | 1012.9 |
| 20260509211551 | 71 | 249 | 0.0 | 6.0 | 0.00 | 0.38 | 0.30 | 88 | 1012.5 |
| 20260509210058 | 71 | 116 | 2.0 | 8.0 | 0.00 | 0.38 | 0.30 | 87 | 1012.3 |
| 20260509204551 | 71 | 107 | 6.0 | 14.0 | 0.00 | 0.38 | 0.30 | 87 | 1011.7 |
| 20260509203050 | 71 | 109 | 5.0 | 10.0 | 0.00 | 0.38 | 0.30 | 88 | 1011.5 |
| 20260509201556 | 71 | 111 | 9.0 | 16.0 | 0.00 | 0.38 | 0.30 | 87 | 1010.7 |
| 20260509200054 | 71 | 119 | 11.0 | 23.0 | 0.00 | 0.38 | 0.30 | 85 | 1011.2 |
| 20260509194548 | 71 | 117 | 12.0 | 17.0 | 0.00 | 0.38 | 0.30 | 83 | 1011.1 |
| 20260509193057 | 71 | 94 | 8.0 | 15.0 | 0.00 | 0.38 | 0.30 | 85 | 1011.1 |